CAPE
0 1 2 2 2 2 2 2 2 2 4 3 2 2 2 1 1 1 0 nan nan nan nan nan nan 0 1 1 1 1 2 2 2 2 1 1 0 0 0 nan nan nan nan nan nan nan nan nan nan nan nan nan nan nan 0 2 2 5 10 11 11 13 13 13 13 14 17 23 22 22 19 12 6 6 1 1 3 3 7 8 8 9 13 16 16 17
0 0 1 2 2 2 2 2 2 2 2 1 1 1 1 1 0 0 nan nan nan nan nan nan nan 0 0 nan 0 0 0 1 0 0 0 0 nan nan nan nan nan nan nan nan nan nan nan nan nan nan nan nan nan nan nan 0 0 3 6 8 8 11 12 14 14 15 17 20 17 17 13 7 4 4 2 2 5 5 13 13 13 12 11 14 14 14
0 0 1 1 1 2 1 2 2 2 1 nan nan nan nan 0 nan nan nan nan nan nan nan nan nan nan nan nan nan nan nan nan nan nan nan nan nan nan nan nan nan nan nan nan nan nan nan nan nan nan nan nan nan nan nan nan nan 0 2 4 4 6 9 10 10 12 13 13 13 13 8 7 5 5 4 5 12 12 16 16 16 12 9 10 10 13
0 nan 1 1 1 1 1 1 1 1 0 nan nan nan nan nan nan nan nan nan nan nan nan nan nan nan nan nan nan nan nan nan nan nan nan nan nan nan nan nan nan nan nan nan nan nan nan nan nan nan nan nan nan nan nan nan nan nan nan 1 1 3 5 5 5 5 6 6 6 6 5 5 6 6 8 12 15 15 16 16 16 10 8 10 10 10
nan 0 0 0 0 1 1 1 0 0 nan nan nan nan nan nan nan nan nan nan nan nan nan nan nan nan nan nan nan nan nan nan nan nan nan nan nan nan nan nan nan nan nan nan nan nan nan nan nan nan nan nan nan nan nan nan nan nan nan nan nan 1 3 4 4 4 4 4 4 4 5 6 7 7 10 13 14 14 14 15 15 10 8 7 7 10
0 0 0 0 0 0 1 0 nan nan nan nan nan nan nan nan nan nan nan nan nan nan nan nan nan nan nan nan nan nan nan nan nan nan nan nan nan nan nan nan nan nan nan nan nan nan nan nan nan nan nan nan nan nan nan nan nan nan nan nan nan nan 1 3 3 3 3 3 4 4 5 7 9 9 10 10 12 12 13 12 12 9 7 7 7 9
nan 0 0 nan nan 0 0 nan nan nan nan nan nan nan nan nan nan nan nan nan nan nan nan nan nan nan nan nan nan nan nan nan nan nan nan nan nan nan nan nan nan nan nan nan nan nan nan nan nan nan nan nan nan nan nan nan nan nan nan nan nan nan 0 2 2 3 3 2 3 3 5 8 10 10 11 10 7 7 7 6 6 6 6 8 8 8
nan nan nan nan nan nan nan nan nan nan nan nan nan nan nan nan nan nan nan nan nan nan nan nan nan nan nan nan nan nan nan nan nan nan nan nan nan nan nan nan nan nan nan nan nan nan nan nan nan nan nan nan nan nan nan nan nan nan nan nan nan nan nan 0 0 3 5 7 10 10 11 11 12 12 10 6 3 3 1 1 1 3 4 8 8 10
nan nan nan nan nan nan nan nan nan nan nan nan nan nan nan nan nan nan nan nan nan nan nan nan nan nan nan nan nan nan nan nan nan nan nan nan nan nan nan nan nan nan nan nan nan nan nan nan nan nan nan nan nan nan nan nan nan nan nan nan nan nan nan 0 0 2 6 8 12 12 12 11 9 9 8 4 2 2 1 1 1 2 5 9 9 14
nan nan nan nan nan nan nan nan nan nan nan nan nan nan nan nan nan nan nan nan nan nan nan nan nan nan nan nan nan nan nan nan nan nan nan nan nan nan nan nan nan nan nan nan nan nan nan nan nan nan nan nan nan nan nan nan nan nan nan nan nan nan nan 0 0 2 4 5 7 7 7 8 6 6 5 3 2 2 2 1 1 3 6 12 12 17
nan nan nan nan nan nan nan nan nan nan nan nan nan nan nan nan nan nan nan nan nan nan nan nan nan nan nan nan nan nan nan nan nan nan nan nan nan nan nan nan nan nan nan nan nan nan nan nan nan nan nan nan nan nan nan nan nan nan nan nan nan nan nan nan nan 0 1 2 4 4 4 4 4 4 4 3 2 2 4 5 5 6 9 14 14 22
nan nan nan nan nan nan nan nan nan nan nan nan nan nan nan nan nan nan nan nan nan nan nan nan nan nan nan nan nan nan nan nan nan nan nan nan nan nan nan nan nan nan nan nan nan nan nan nan nan nan nan nan nan nan nan nan nan nan nan nan nan nan nan nan nan nan 0 1 2 2 3 3 3 3 4 5 6 6 7 8 8 10 15 21 21 27
nan nan nan nan nan nan nan nan nan nan nan nan nan nan nan nan nan nan nan nan nan nan nan nan nan nan nan nan nan nan nan nan nan nan nan nan nan nan nan nan nan nan nan nan nan nan nan nan nan nan nan nan nan nan nan nan nan nan nan nan nan nan nan 0 0 0 1 2 3 3 4 5 5 5 6 7 10 10 13 13 13 15 16 22 22 29
nan nan nan nan nan nan nan nan nan nan nan nan nan nan nan nan nan nan nan nan nan nan nan nan nan nan nan nan nan nan nan nan nan nan nan nan nan nan nan nan nan nan nan nan nan nan nan nan nan nan nan nan nan nan nan nan nan nan nan nan nan 1 1 2 2 3 4 5 6 6 5 7 7 7 8 10 13 13 15 16 16 17 17 20 20 23
nan nan nan nan nan nan nan nan nan nan nan nan nan nan nan nan nan nan nan nan nan nan nan nan nan nan nan nan nan nan nan nan nan nan nan nan nan nan nan nan nan nan nan nan nan nan nan nan nan nan nan nan nan nan nan nan nan nan nan nan nan 0 2 3 3 4 5 7 8 8 8 8 9 9 10 13 14 14 15 16 16 16 16 18 18 19
nan nan nan nan nan nan nan nan nan nan nan nan nan nan nan nan nan nan nan nan nan nan nan nan nan nan nan nan nan nan nan nan nan nan nan nan nan nan nan nan nan nan nan nan nan nan nan nan nan nan nan nan nan nan nan nan nan nan nan nan nan 0 1 2 2 3 5 7 9 9 9 9 9 9 10 12 13 13 14 16 16 16 17 17 17 17
nan nan nan nan nan nan nan nan nan nan nan nan nan nan nan nan nan nan nan nan nan nan nan nan nan nan nan nan nan nan nan nan nan nan nan nan nan nan nan nan nan nan nan nan nan nan nan nan nan nan nan nan nan nan nan nan nan nan nan nan nan nan 0 1 1 2 3 5 7 7 9 9 10 10 10 11 12 12 15 16 16 16 17 17 17 18
nan nan nan nan nan nan nan nan nan nan nan nan nan nan nan nan nan nan nan nan nan nan nan nan nan nan nan nan nan nan nan nan nan nan nan nan nan nan nan nan nan nan nan nan nan nan nan nan nan nan nan nan nan nan nan nan nan nan nan nan nan nan 0 0 0 1 3 4 6 6 7 9 10 10 10 11 11 11 14 15 15 18 19 19 19 18
nan nan nan nan nan nan nan nan nan nan nan nan nan nan nan nan nan nan nan nan nan nan nan nan nan nan nan nan nan nan nan nan nan nan nan nan nan nan nan nan nan nan nan nan nan nan nan nan nan nan nan nan nan nan nan nan nan nan nan nan nan nan 0 0 0 1 2 3 5 5 6 7 9 9 10 9 11 11 13 15 15 17 17 16 16 17
nan nan nan nan nan nan nan nan nan nan nan nan nan nan nan nan nan nan nan nan nan nan nan nan nan nan nan nan nan nan nan nan nan nan nan nan nan nan nan nan nan nan nan nan nan nan nan nan nan nan nan nan nan nan nan nan nan nan 0 nan nan 0 0 0 0 0 1 2 4 4 5 6 7 7 9 9 11 11 14 16 16 15 15 15 15 16
nan nan nan nan nan nan nan nan nan nan nan nan nan nan nan nan nan nan nan nan nan nan nan nan nan nan nan nan nan nan nan nan nan nan nan nan nan nan nan nan nan nan nan nan nan nan nan nan nan nan nan nan nan nan nan nan nan nan 0 0 0 0 0 0 0 0 0 1 2 2 3 5 6 6 8 10 11 11 14 15 15 15 14 14 14 14
nan nan nan nan nan nan nan nan nan nan nan nan nan nan nan nan nan nan nan nan nan nan nan nan nan nan nan nan nan nan nan nan nan nan nan nan nan nan nan nan nan nan nan nan nan nan nan nan nan nan nan nan nan nan nan nan nan 0 1 1 1 1 1 1 1 1 1 2 3 3 4 5 6 6 8 10 12 12 13 13 13 12 11 12 12 13
nan nan nan nan nan nan nan nan nan nan nan nan nan nan nan nan nan nan nan nan nan nan nan nan nan nan nan nan nan nan nan nan nan nan nan nan nan nan nan nan nan nan nan nan nan nan nan nan nan nan nan nan nan nan nan nan nan 1 2 3 3 3 3 3 3 2 3 3 4 4 5 5 7 7 8 9 10 10 10 9 9 8 8 9 9 10
nan nan nan nan nan nan nan nan nan nan nan nan nan nan nan nan nan nan nan nan nan nan nan nan nan nan nan nan nan nan nan nan nan nan nan nan nan nan nan nan nan nan nan nan nan nan nan nan nan nan nan nan nan nan nan nan nan 2 3 2 2 3 2 3 3 3 4 4 4 4 6 6 6 6 6 6 6 6 6 6 6 7 7 8 8 8
nan nan nan nan nan nan nan nan nan nan nan nan nan nan 0 0 nan nan nan nan nan nan nan nan nan nan nan nan nan nan nan nan nan nan nan nan nan nan nan nan nan nan nan nan nan nan nan nan nan nan nan nan nan nan nan nan nan 0 0 0 0 0 0 1 1 1 1 2 3 3 3 3 4 4 4 5 5 5 6 5 5 6 6 6 6 7
nan nan nan nan nan nan nan nan nan nan nan nan nan nan nan nan nan nan nan nan nan nan nan nan nan nan nan nan nan nan nan nan nan nan nan nan nan nan nan nan nan nan nan nan nan nan nan nan nan nan nan nan nan nan nan nan nan nan nan nan nan nan nan nan nan nan 0 1 1 1 1 1 2 2 3 3 3 3 4 4 4 4 5 5 5 5
nan nan nan nan nan nan nan nan nan nan nan nan nan nan nan nan nan nan nan nan nan nan nan nan nan nan nan nan nan nan nan nan nan nan nan nan nan nan nan nan nan nan nan nan nan nan nan nan nan nan nan nan nan nan nan nan nan nan nan nan nan nan nan nan nan nan nan nan 0 0 0 1 1 1 2 2 2 2 3 3 3 3 3 4 4 3
nan nan nan nan nan nan nan nan nan nan nan 0 1 1 nan nan nan nan nan nan nan nan nan nan nan nan nan nan nan nan nan nan nan nan nan nan nan nan nan nan nan nan nan nan nan nan nan nan nan nan nan nan nan nan nan nan nan nan nan nan nan nan nan nan nan nan nan nan 0 0 0 1 1 1 1 2 2 2 2 2 2 2 3 0 0 nan
nan nan nan nan nan nan nan nan nan nan 1 1 1 1 nan nan nan nan nan nan nan nan nan nan nan nan nan nan nan nan nan nan nan nan nan nan nan nan nan nan nan nan nan nan nan nan nan nan nan nan nan nan nan nan nan nan nan nan nan nan nan nan nan nan nan nan nan nan nan nan 0 0 1 1 1 1 1 1 2 2 2 3 1 nan nan nan
nan nan nan nan nan nan nan nan nan nan nan nan nan nan nan nan nan nan nan nan nan nan nan nan nan nan nan nan nan nan nan nan nan nan nan nan nan nan nan nan nan nan nan nan nan nan nan nan nan nan nan nan nan nan nan nan nan nan nan nan nan nan nan nan nan nan nan nan nan nan nan 0 0 0 0 1 1 1 1 1 1 1 nan nan nan nan
nan 0 0 0 0 nan nan nan nan nan nan nan nan nan nan nan nan nan nan nan nan nan nan nan nan nan nan nan nan nan nan nan nan nan nan nan nan nan nan nan nan nan nan nan nan nan nan nan nan nan nan nan nan nan nan nan nan nan nan nan nan nan nan nan nan nan nan nan nan nan nan 0 0 0 0 0 1 1 1 2 2 0 nan nan nan nan
nan nan nan nan nan nan nan nan nan nan nan nan nan nan nan nan nan nan nan nan nan nan nan nan nan nan nan nan nan nan nan nan nan nan nan nan nan nan nan nan nan nan nan nan nan nan nan nan nan nan nan nan nan nan nan nan nan nan nan nan nan nan nan nan nan nan nan nan 0 0 0 0 0 0 0 1 1 1 2 2 2 2 nan nan nan nan
nan nan nan nan nan nan nan nan nan nan nan nan nan nan nan nan nan nan nan nan nan nan nan nan nan nan nan nan nan nan nan nan nan nan nan nan nan nan nan nan nan nan nan nan nan nan nan nan nan nan nan nan nan nan nan nan nan nan nan nan nan nan nan nan nan nan nan nan nan nan nan nan 0 0 0 1 2 2 2 2 2 2 1 nan nan nan
nan nan nan nan nan nan nan nan nan nan nan nan nan nan nan nan nan nan nan nan nan nan nan nan nan nan nan nan nan nan nan nan nan nan nan nan nan nan nan nan nan nan nan nan nan nan nan nan nan nan nan nan nan nan nan nan nan nan nan nan nan nan nan nan nan nan nan nan nan nan nan nan nan nan nan 0 1 1 1 2 2 3 4 nan nan nan
nan nan nan nan nan nan nan nan nan nan nan nan nan nan nan nan nan nan nan nan nan nan nan nan nan nan nan nan nan nan nan nan nan nan nan nan nan nan nan nan nan nan nan nan nan nan nan nan nan nan nan nan nan nan nan nan nan nan nan nan nan nan nan nan nan nan nan nan nan nan nan nan nan nan nan nan 0 0 1 3 3 3 5 6 6 1
nan nan nan nan nan nan nan nan nan nan nan nan nan nan nan nan nan nan nan nan nan nan nan nan nan nan nan nan nan nan nan nan nan nan nan nan nan nan nan nan nan nan nan nan nan 0 nan nan nan nan nan nan nan nan nan nan nan nan nan nan nan nan nan nan nan nan nan nan nan nan nan nan nan nan nan nan 1 1 2 3 3 3 5 6 6 6
nan nan nan nan nan nan nan nan nan nan nan nan nan nan nan nan nan nan nan nan nan nan nan nan nan nan nan nan nan nan nan nan nan nan nan nan nan nan nan nan nan nan nan nan nan 0 0 0 0 0 nan nan nan nan nan nan nan nan nan nan nan nan nan nan nan nan nan nan nan nan nan nan nan nan nan 0 0 0 1 2 2 3 4 4 4 5
nan nan nan nan nan nan nan nan nan nan nan nan nan nan nan nan nan nan nan nan nan nan nan nan nan nan nan nan nan nan nan nan nan nan nan nan nan nan nan 0 0 nan 0 nan nan 0 0 nan nan nan nan nan nan nan nan nan nan nan nan nan nan nan nan nan nan nan nan nan nan nan nan nan nan nan nan nan nan nan nan nan nan nan 1 1 1 4
nan nan nan nan nan nan nan nan nan nan nan nan nan nan nan nan nan nan nan nan nan nan nan nan nan nan nan nan nan nan nan nan nan nan nan nan nan nan nan 0 0 nan 0 0 0 1 0 nan nan nan nan nan nan nan nan nan nan nan nan nan nan nan nan nan nan nan nan nan nan nan nan nan nan nan nan nan nan nan nan nan nan nan nan nan nan nan
nan nan nan nan nan nan nan nan nan nan nan nan nan nan nan nan nan nan nan nan nan nan nan nan nan nan nan nan nan nan nan nan nan nan nan nan nan nan nan 0 0 0 0 1 1 1 0 0 0 0 0 nan nan nan nan nan nan nan nan nan nan nan nan nan nan nan nan nan nan nan nan nan nan nan nan nan nan nan nan nan nan nan nan nan nan nan
nan nan nan nan nan nan nan nan nan nan nan nan nan nan nan nan nan nan nan nan nan nan nan nan nan nan nan nan nan nan nan nan nan nan nan nan nan nan nan nan nan 0 1 1 1 1 1 0 0 0 0 0 nan nan 0 0 0 1 2 nan nan nan nan nan nan nan nan nan nan nan nan nan nan nan nan nan nan nan nan nan nan nan nan nan nan nan
nan nan nan nan nan nan nan nan nan nan nan nan nan nan nan nan nan nan nan nan nan nan nan nan nan nan nan nan nan nan nan nan nan nan nan nan nan nan nan nan nan 0 1 1 1 1 2 1 1 1 0 0 nan nan nan nan nan 0 1 0 0 nan nan nan nan nan nan 0 nan nan nan nan nan nan nan nan nan nan nan nan nan nan nan nan nan nan
nan nan nan nan nan nan nan nan nan nan nan nan nan nan nan nan nan nan nan nan nan nan nan nan nan nan nan nan nan nan nan nan nan nan nan nan nan nan nan nan nan 1 1 2 2 1 1 1 1 1 0 0 nan nan nan nan nan 0 0 0 0 0 nan nan nan nan nan nan nan nan nan nan nan nan nan nan nan nan nan nan nan 1 0 nan nan nan
nan nan nan nan nan nan nan nan nan nan nan nan nan nan nan nan nan nan nan nan nan nan nan nan nan nan nan nan nan nan nan nan nan nan nan nan nan nan nan nan nan 0 1 1 1 0 1 1 1 1 0 0 0 0 nan nan nan 0 nan 0 0 0 nan nan nan nan nan nan nan nan nan nan nan nan nan nan nan nan nan nan nan nan nan nan nan nan
nan nan nan nan nan nan nan nan nan nan nan nan nan nan nan nan nan nan nan nan nan nan nan nan nan nan nan nan nan nan nan nan nan nan nan 0 nan nan nan nan nan 0 1 1 1 1 0 nan nan 0 0 0 0 0 nan nan nan nan 0 0 0 0 nan nan nan nan nan nan nan nan nan nan nan nan nan nan nan nan nan nan nan nan nan nan nan nan
nan nan nan nan nan nan nan nan nan nan nan nan nan nan nan nan nan nan nan nan nan nan nan nan nan nan nan nan nan nan nan nan nan nan nan nan 0 0 1 0 0 nan nan 0 0 0 0 nan nan 0 0 0 1 1 0 nan nan nan 0 0 0 nan nan nan nan nan nan nan nan nan nan nan nan nan nan nan nan nan nan nan nan nan nan nan nan nan
nan nan nan nan nan nan nan nan nan nan nan nan nan nan nan nan nan nan nan nan nan nan nan nan nan nan nan nan nan nan nan nan nan nan nan nan nan nan nan 1 1 2 1 0 0 1 1 nan nan nan 0 nan nan nan nan nan nan nan nan 0 0 0 0 nan nan nan nan nan nan nan nan nan nan nan 0 nan 0 0 nan nan nan nan nan nan nan nan
nan nan nan nan nan nan nan nan nan nan nan nan nan nan nan nan nan nan nan nan nan nan nan nan nan nan nan nan nan nan nan nan nan nan nan nan nan nan nan 0 0 1 1 1 1 1 0 nan nan nan 0 nan nan nan nan nan nan nan nan 0 0 nan nan nan nan nan nan nan nan nan nan nan 0 0 0 0 nan nan nan nan nan nan nan nan nan nan
nan nan nan nan nan nan nan nan nan nan nan nan nan nan nan nan nan nan nan nan nan nan nan nan nan nan nan nan nan nan nan nan nan nan nan nan nan nan nan nan nan nan nan 0 0 0 0 nan nan 0 nan nan nan nan nan nan nan nan nan 0 0 nan nan nan nan nan nan nan nan nan nan 0 nan nan 0 0 0 0 nan nan nan nan nan nan nan nan
nan nan nan nan nan nan nan nan nan nan nan nan nan nan nan nan nan nan nan nan nan nan nan nan nan nan nan nan nan nan nan nan nan nan nan nan nan nan nan nan nan nan nan nan nan nan nan nan nan nan 0 nan nan nan nan nan nan nan nan nan nan nan nan nan nan nan nan nan nan nan nan nan 0 0 0 0 nan nan nan nan nan nan nan nan nan nan
nan nan nan nan nan nan nan nan nan nan nan nan nan nan nan nan nan nan nan nan nan nan nan nan nan nan nan nan nan nan nan nan nan nan nan nan nan nan 0 0 0 0 0 nan nan nan nan nan nan nan nan 1 nan nan nan nan nan nan nan nan nan nan nan nan nan nan 0 nan nan nan nan 0 1 1 2 1 1 1 0 nan nan nan nan nan nan nan
CIN
-0 -0 -0 -0 -0 -0 -0 -0 -0 -0 -0 -0 -0 -0 -0 -2 -3 -3 -1 nan nan nan nan nan nan -8 -3 -0 -0 -0 -0 -0 -0 -0 -0 -0 -0 -0 -0 nan nan nan nan nan nan nan nan nan nan nan nan nan nan nan -0 -0 -0 -0 -0 -0 -0 -0 -0 -0 -0 -0 -0 -0 -0 -0 -0 -0 -0 -0 -1 -0 -0 -0 -0 -0 -0 -0 -0 -0 -0 -0
-0 -0 -0 -0 -0 -0 -0 -0 -0 -0 -0 -0 -0 -0 -0 -0 -0 -0 nan nan nan nan nan nan nan -9 -7 nan -0 -0 -0 -0 -0 -0 -0 -0 nan nan nan nan nan nan nan nan nan nan nan nan nan nan nan nan nan nan nan -0 -0 -0 -0 -0 -0 -0 -0 -0 -0 -0 -0 -0 -0 -0 -0 -0 -1 -1 -0 -0 -0 -0 -0 -0 -0 -0 -0 -0 -0 -0
-0 -0 -0 -0 -0 -0 -0 -0 -0 -0 -0 nan nan nan nan -0 nan nan nan nan nan nan nan nan nan nan nan nan nan nan nan nan nan nan nan nan nan nan nan nan nan nan nan nan nan nan nan nan nan nan nan nan nan nan nan nan nan -0 -0 -0 -0 -0 -0 -0 -0 -0 -0 -0 -0 -0 -0 -0 -0 -0 -0 -0 -0 -0 -0 -0 -0 -0 -0 -0 -0 -0
-0 nan -0 -0 -0 -0 -0 -0 -0 -0 -0 nan nan nan nan nan nan nan nan nan nan nan nan nan nan nan nan nan nan nan nan nan nan nan nan nan nan nan nan nan nan nan nan nan nan nan nan nan nan nan nan nan nan nan nan nan nan nan nan -0 -0 -0 -0 -0 -0 -0 -0 -0 -0 -0 -0 -0 -0 -0 -0 -0 -0 -0 -0 -0 -0 -0 -0 -0 -0 -0
nan -0 -0 -0 -0 -0 -0 -0 -0 -0 nan nan nan nan nan nan nan nan nan nan nan nan nan nan nan nan nan nan nan nan nan nan nan nan nan nan nan nan nan nan nan nan nan nan nan nan nan nan nan nan nan nan nan nan nan nan nan nan nan nan nan -0 -0 -0 -0 -0 -0 -0 -0 -0 -0 -0 -0 -0 -0 -0 -0 -0 -0 -0 -0 -0 -0 -0 -0 -0
-0 -0 -0 -0 -0 -0 -0 -0 nan nan nan nan nan nan nan nan nan nan nan nan nan nan nan nan nan nan nan nan nan nan nan nan nan nan nan nan nan nan nan nan nan nan nan nan nan nan nan nan nan nan nan nan nan nan nan nan nan nan nan nan nan nan -0 -0 -0 -0 -0 -0 -0 -0 -0 -0 -0 -0 -0 -0 -0 -0 -0 -0 -0 -0 -0 -0 -0 -0
nan -0 -0 nan nan -0 -0 nan nan nan nan nan nan nan nan nan nan nan nan nan nan nan nan nan nan nan nan nan nan nan nan nan nan nan nan nan nan nan nan nan nan nan nan nan nan nan nan nan nan nan nan nan nan nan nan nan nan nan nan nan nan nan -0 -0 -0 -0 -0 -0 -0 -0 -0 -0 -0 -0 -0 -0 -0 -0 -0 -0 -0 -0 -0 -0 -0 -0
nan nan nan nan nan nan nan nan nan nan nan nan nan nan nan nan nan nan nan nan nan nan nan nan nan nan nan nan nan nan nan nan nan nan nan nan nan nan nan nan nan nan nan nan nan nan nan nan nan nan nan nan nan nan nan nan nan nan nan nan nan nan nan -0 -0 -0 -0 -0 -0 -0 -0 -0 -0 -0 -0 -0 -0 -0 -0 -0 -0 -0 -0 -0 -0 -0
nan nan nan nan nan nan nan nan nan nan nan nan nan nan nan nan nan nan nan nan nan nan nan nan nan nan nan nan nan nan nan nan nan nan nan nan nan nan nan nan nan nan nan nan nan nan nan nan nan nan nan nan nan nan nan nan nan nan nan nan nan nan nan -0 -0 -0 -0 -0 -0 -0 -0 -0 -0 -0 -0 -0 -0 -0 -0 -0 -0 -0 -0 -0 -0 -0
nan nan nan nan nan nan nan nan nan nan nan nan nan nan nan nan nan nan nan nan nan nan nan nan nan nan nan nan nan nan nan nan nan nan nan nan nan nan nan nan nan nan nan nan nan nan nan nan nan nan nan nan nan nan nan nan nan nan nan nan nan nan nan -0 -0 -0 -0 -0 -0 -0 -0 -0 -0 -0 -0 -0 -0 -0 -0 -0 -0 -0 -0 -0 -0 -0
nan nan nan nan nan nan nan nan nan nan nan nan nan nan nan nan nan nan nan nan nan nan nan nan nan nan nan nan nan nan nan nan nan nan nan nan nan nan nan nan nan nan nan nan nan nan nan nan nan nan nan nan nan nan nan nan nan nan nan nan nan nan nan nan nan -0 -0 -0 -0 -0 -0 -0 -0 -0 -0 -0 -0 -0 -0 -0 -0 -0 -0 -0 -0 -0
nan nan nan nan nan nan nan nan nan nan nan nan nan nan nan nan nan nan nan nan nan nan nan nan nan nan nan nan nan nan nan nan nan nan nan nan nan nan nan nan nan nan nan nan nan nan nan nan nan nan nan nan nan nan nan nan nan nan nan nan nan nan nan nan nan nan -0 -0 -0 -0 -0 -0 -0 -0 -0 -0 -0 -0 -0 -0 -0 -0 -0 -0 -0 -0
nan nan nan nan nan nan nan nan nan nan nan nan nan nan nan nan nan nan nan nan nan nan nan nan nan nan nan nan nan nan nan nan nan nan nan nan nan nan nan nan nan nan nan nan nan nan nan nan nan nan nan nan nan nan nan nan nan nan nan nan nan nan nan -0 -0 -0 -0 -0 -0 -0 -0 -0 -0 -0 -0 -0 -0 -0 -0 -0 -0 -0 -0 -0 -0 -0
nan nan nan nan nan nan nan nan nan nan nan nan nan nan nan nan nan nan nan nan nan nan nan nan nan nan nan nan nan nan nan nan nan nan nan nan nan nan nan nan nan nan nan nan nan nan nan nan nan nan nan nan nan nan nan nan nan nan nan nan nan -0 -0 -0 -0 -0 -0 -0 -0 -0 -0 -0 -0 -0 -0 -0 -0 -0 -0 -0 -0 -0 -0 -0 -0 -0
nan nan nan nan nan nan nan nan nan nan nan nan nan nan nan nan nan nan nan nan nan nan nan nan nan nan nan nan nan nan nan nan nan nan nan nan nan nan nan nan nan nan nan nan nan nan nan nan nan nan nan nan nan nan nan nan nan nan nan nan nan -0 -0 -0 -0 -0 -0 -0 -0 -0 -0 -0 -0 -0 -0 -0 -0 -0 -0 -0 -0 -0 -0 -0 -0 -0
nan nan nan nan nan nan nan nan nan nan nan nan nan nan nan nan nan nan nan nan nan nan nan nan nan nan nan nan nan nan nan nan nan nan nan nan nan nan nan nan nan nan nan nan nan nan nan nan nan nan nan nan nan nan nan nan nan nan nan nan nan -0 -0 -0 -0 -0 -0 -0 -0 -0 -0 -0 -0 -0 -0 -0 -0 -0 -0 -0 -0 -0 -0 -0 -0 -0
nan nan nan nan nan nan nan nan nan nan nan nan nan nan nan nan nan nan nan nan nan nan nan nan nan nan nan nan nan nan nan nan nan nan nan nan nan nan nan nan nan nan nan nan nan nan nan nan nan nan nan nan nan nan nan nan nan nan nan nan nan nan -0 -0 -0 -0 -0 -0 -0 -0 -0 -0 -0 -0 -0 -0 -0 -0 -0 -0 -0 -0 -0 -0 -0 -0
nan nan nan nan nan nan nan nan nan nan nan nan nan nan nan nan nan nan nan nan nan nan nan nan nan nan nan nan nan nan nan nan nan nan nan nan nan nan nan nan nan nan nan nan nan nan nan nan nan nan nan nan nan nan nan nan nan nan nan nan nan nan -0 -0 -0 -0 -0 -0 -0 -0 -0 -0 -0 -0 -0 -0 -0 -0 -0 -0 -0 -0 -0 -0 -0 -0
nan nan nan nan nan nan nan nan nan nan nan nan nan nan nan nan nan nan nan nan nan nan nan nan nan nan nan nan nan nan nan nan nan nan nan nan nan nan nan nan nan nan nan nan nan nan nan nan nan nan nan nan nan nan nan nan nan nan nan nan nan nan -0 -0 -0 -0 -0 -0 -0 -0 -0 -0 -0 -0 -0 -0 -0 -0 -0 -0 -0 -0 -0 -0 -0 -0
nan nan nan nan nan nan nan nan nan nan nan nan nan nan nan nan nan nan nan nan nan nan nan nan nan nan nan nan nan nan nan nan nan nan nan nan nan nan nan nan nan nan nan nan nan nan nan nan nan nan nan nan nan nan nan nan nan nan -0 nan nan -0 -0 -0 -0 -0 -0 -0 -0 -0 -0 -0 -0 -0 -0 -0 -0 -0 -0 -0 -0 -0 -0 -0 -0 -0
nan nan nan nan nan nan nan nan nan nan nan nan nan nan nan nan nan nan nan nan nan nan nan nan nan nan nan nan nan nan nan nan nan nan nan nan nan nan nan nan nan nan nan nan nan nan nan nan nan nan nan nan nan nan nan nan nan nan -0 -0 -0 -0 -0 -0 -0 -0 -0 -0 -0 -0 -0 -0 -0 -0 -0 -0 -0 -0 -0 -0 -0 -0 -0 -0 -0 -0
nan nan nan nan nan nan nan nan nan nan nan nan nan nan nan nan nan nan nan nan nan nan nan nan nan nan nan nan nan nan nan nan nan nan nan nan nan nan nan nan nan nan nan nan nan nan nan nan nan nan nan nan nan nan nan nan nan -0 -0 -0 -0 -0 -0 -0 -0 -0 -0 -0 -0 -0 -0 -0 -0 -0 -0 -0 -0 -0 -0 -0 -0 -0 -0 -0 -0 -0
nan nan nan nan nan nan nan nan nan nan nan nan nan nan nan nan nan nan nan nan nan nan nan nan nan nan nan nan nan nan nan nan nan nan nan nan nan nan nan nan nan nan nan nan nan nan nan nan nan nan nan nan nan nan nan nan nan -0 -0 -0 -0 -0 -0 -0 -0 -0 -0 -0 -0 -0 -0 -0 -0 -0 -0 -0 -0 -0 -0 -0 -0 -0 -0 -0 -0 -0
nan nan nan nan nan nan nan nan nan nan nan nan nan nan nan nan nan nan nan nan nan nan nan nan nan nan nan nan nan nan nan nan nan nan nan nan nan nan nan nan nan nan nan nan nan nan nan nan nan nan nan nan nan nan nan nan nan -0 -0 -0 -0 -0 -0 -0 -0 -0 -0 -0 -0 -0 -0 -0 -0 -0 -0 -0 -0 -0 -0 -0 -0 -0 -0 -0 -0 -0
nan nan nan nan nan nan nan nan nan nan nan nan nan nan -20 -17 nan nan nan nan nan nan nan nan nan nan nan nan nan nan nan nan nan nan nan nan nan nan nan nan nan nan nan nan nan nan nan nan nan nan nan nan nan nan nan nan nan -0 -0 -0 -0 -0 -0 -0 -0 -0 -0 -0 -0 -0 -0 -0 -0 -0 -0 -0 -0 -0 -0 -0 -0 -0 -0 -0 -0 -0
nan nan nan nan nan nan nan nan nan nan nan nan nan nan nan nan nan nan nan nan nan nan nan nan nan nan nan nan nan nan nan nan nan nan nan nan nan nan nan nan nan nan nan nan nan nan nan nan nan nan nan nan nan nan nan nan nan nan nan nan nan nan nan nan nan nan -0 -0 -0 -0 -0 -0 -0 -0 -0 -0 -0 -0 -0 -0 -0 -0 -0 -0 -0 -0
nan nan nan nan nan nan nan nan nan nan nan nan nan nan nan nan nan nan nan nan nan nan nan nan nan nan nan nan nan nan nan nan nan nan nan nan nan nan nan nan nan nan nan nan nan nan nan nan nan nan nan nan nan nan nan nan nan nan nan nan nan nan nan nan nan nan nan nan -0 -0 -0 -0 -0 -0 -0 -0 -0 -0 -0 -0 -0 -0 -0 -0 -0 -0
nan nan nan nan nan nan nan nan nan nan nan -0 -0 -0 nan nan nan nan nan nan nan nan nan nan nan nan nan nan nan nan nan nan nan nan nan nan nan nan nan nan nan nan nan nan nan nan nan nan nan nan nan nan nan nan nan nan nan nan nan nan nan nan nan nan nan nan nan nan -0 -0 -0 -0 -0 -0 -0 -0 -0 -0 -0 -0 -0 -0 -0 -1 -1 nan
nan nan nan nan nan nan nan nan nan nan -0 -0 -0 -0 nan nan nan nan nan nan nan nan nan nan nan nan nan nan nan nan nan nan nan nan nan nan nan nan nan nan nan nan nan nan nan nan nan nan nan nan nan nan nan nan nan nan nan nan nan nan nan nan nan nan nan nan nan nan nan nan -0 -0 -0 -0 -0 -0 -0 -0 -0 -0 -0 -0 -0 nan nan nan
nan nan nan nan nan nan nan nan nan nan nan nan nan nan nan nan nan nan nan nan nan nan nan nan nan nan nan nan nan nan nan nan nan nan nan nan nan nan nan nan nan nan nan nan nan nan nan nan nan nan nan nan nan nan nan nan nan nan nan nan nan nan nan nan nan nan nan nan nan nan nan -0 -0 -0 -0 -0 -0 -0 -0 -0 -0 -0 nan nan nan nan
nan -2 -5 -2 -2 nan nan nan nan nan nan nan nan nan nan nan nan nan nan nan nan nan nan nan nan nan nan nan nan nan nan nan nan nan nan nan nan nan nan nan nan nan nan nan nan nan nan nan nan nan nan nan nan nan nan nan nan nan nan nan nan nan nan nan nan nan nan nan nan nan nan -0 -0 -0 -0 -0 -0 -0 -0 -0 -0 -0 nan nan nan nan
nan nan nan nan nan nan nan nan nan nan nan nan nan nan nan nan nan nan nan nan nan nan nan nan nan nan nan nan nan nan nan nan nan nan nan nan nan nan nan nan nan nan nan nan nan nan nan nan nan nan nan nan nan nan nan nan nan nan nan nan nan nan nan nan nan nan nan nan -0 -0 -0 -0 -0 -0 -0 -0 -0 -0 -0 -0 -0 -0 nan nan nan nan
nan nan nan nan nan nan nan nan nan nan nan nan nan nan nan nan nan nan nan nan nan nan nan nan nan nan nan nan nan nan nan nan nan nan nan nan nan nan nan nan nan nan nan nan nan nan nan nan nan nan nan nan nan nan nan nan nan nan nan nan nan nan nan nan nan nan nan nan nan nan nan nan -0 -0 -0 -0 -0 -0 -0 -0 -0 -0 -1 nan nan nan
nan nan nan nan nan nan nan nan nan nan nan nan nan nan nan nan nan nan nan nan nan nan nan nan nan nan nan nan nan nan nan nan nan nan nan nan nan nan nan nan nan nan nan nan nan nan nan nan nan nan nan nan nan nan nan nan nan nan nan nan nan nan nan nan nan nan nan nan nan nan nan nan nan nan nan -0 -0 -0 -0 -0 -0 -0 -0 nan nan nan
nan nan nan nan nan nan nan nan nan nan nan nan nan nan nan nan nan nan nan nan nan nan nan nan nan nan nan nan nan nan nan nan nan nan nan nan nan nan nan nan nan nan nan nan nan nan nan nan nan nan nan nan nan nan nan nan nan nan nan nan nan nan nan nan nan nan nan nan nan nan nan nan nan nan nan nan -0 -0 -0 -0 -0 -0 -0 -0 -0 -3
nan nan nan nan nan nan nan nan nan nan nan nan nan nan nan nan nan nan nan nan nan nan nan nan nan nan nan nan nan nan nan nan nan nan nan nan nan nan nan nan nan nan nan nan nan -2 nan nan nan nan nan nan nan nan nan nan nan nan nan nan nan nan nan nan nan nan nan nan nan nan nan nan nan nan nan nan -0 -0 -0 -0 -0 -0 -0 -0 -0 -0
nan nan nan nan nan nan nan nan nan nan nan nan nan nan nan nan nan nan nan nan nan nan nan nan nan nan nan nan nan nan nan nan nan nan nan nan nan nan nan nan nan nan nan nan nan -0 -0 -0 -0 -0 nan nan nan nan nan nan nan nan nan nan nan nan nan nan nan nan nan nan nan nan nan nan nan nan nan -0 -0 -0 -0 -0 -0 -0 -0 -0 -0 -0
nan nan nan nan nan nan nan nan nan nan nan nan nan nan nan nan nan nan nan nan nan nan nan nan nan nan nan nan nan nan nan nan nan nan nan nan nan nan nan -1 -1 nan -1 nan nan -1 -0 nan nan nan nan nan nan nan nan nan nan nan nan nan nan nan nan nan nan nan nan nan nan nan nan nan nan nan nan nan nan nan nan nan nan nan -0 -0 -0 -0
nan nan nan nan nan nan nan nan nan nan nan nan nan nan nan nan nan nan nan nan nan nan nan nan nan nan nan nan nan nan nan nan nan nan nan nan nan nan nan -0 -0 nan -3 -5 -5 -2 -1 nan nan nan nan nan nan nan nan nan nan nan nan nan nan nan nan nan nan nan nan nan nan nan nan nan nan nan nan nan nan nan nan nan nan nan nan nan nan nan
nan nan nan nan nan nan nan nan nan nan nan nan nan nan nan nan nan nan nan nan nan nan nan nan nan nan nan nan nan nan nan nan nan nan nan nan nan nan nan -1 -1 -1 -3 -5 -5 -3 -2 -1 -1 -1 -0 nan nan nan nan nan nan nan nan nan nan nan nan nan nan nan nan nan nan nan nan nan nan nan nan nan nan nan nan nan nan nan nan nan nan nan
nan nan nan nan nan nan nan nan nan nan nan nan nan nan nan nan nan nan nan nan nan nan nan nan nan nan nan nan nan nan nan nan nan nan nan nan nan nan nan nan nan -2 -3 -3 -3 -3 -3 -2 -2 -2 -3 -4 nan nan -2 -5 -5 -0 -0 nan nan nan nan nan nan nan nan nan nan nan nan nan nan nan nan nan nan nan nan nan nan nan nan nan nan nan
nan nan nan nan nan nan nan nan nan nan nan nan nan nan nan nan nan nan nan nan nan nan nan nan nan nan nan nan nan nan nan nan nan nan nan nan nan nan nan nan nan -2 -3 -2 -2 -3 -2 -2 -2 -2 -3 -4 nan nan nan nan nan -2 -0 -4 -4 nan nan nan nan nan nan -13 nan nan nan nan nan nan nan nan nan nan nan nan nan nan nan nan nan nan
nan nan nan nan nan nan nan nan nan nan nan nan nan nan nan nan nan nan nan nan nan nan nan nan nan nan nan nan nan nan nan nan nan nan nan nan nan nan nan nan nan -4 -3 -1 -1 -2 -3 -1 -1 -3 -5 -5 nan nan nan nan nan -4 -5 -3 -3 -4 nan nan nan nan nan nan nan nan nan nan nan nan nan nan nan nan nan nan nan -6 -13 nan nan nan
nan nan nan nan nan nan nan nan nan nan nan nan nan nan nan nan nan nan nan nan nan nan nan nan nan nan nan nan nan nan nan nan nan nan nan nan nan nan nan nan nan -6 -4 -2 -2 -2 -3 -2 -2 -4 -5 -6 -5 -5 nan nan nan -5 nan -5 -5 -5 nan nan nan nan nan nan nan nan nan nan nan nan nan nan nan nan nan nan nan nan nan nan nan nan
nan nan nan nan nan nan nan nan nan nan nan nan nan nan nan nan nan nan nan nan nan nan nan nan nan nan nan nan nan nan nan nan nan nan nan -10 nan nan nan nan nan -7 -5 -3 -3 -3 -2 nan nan -5 -7 -7 -5 -5 nan nan nan nan -2 -3 -3 -5 nan nan nan nan nan nan nan nan nan nan nan nan nan nan nan nan nan nan nan nan nan nan nan nan
nan nan nan nan nan nan nan nan nan nan nan nan nan nan nan nan nan nan nan nan nan nan nan nan nan nan nan nan nan nan nan nan nan nan nan nan -11 -11 -5 -5 -5 nan nan -5 -5 -6 -4 nan nan -4 -5 -5 -5 -5 -6 nan nan nan -4 -3 -3 nan nan nan nan nan nan nan nan nan nan nan nan nan nan nan nan nan nan nan nan nan nan nan nan nan
nan nan nan nan nan nan nan nan nan nan nan nan nan nan nan nan nan nan nan nan nan nan nan nan nan nan nan nan nan nan nan nan nan nan nan nan nan nan nan -8 -8 -5 -6 -6 -6 -8 -8 nan nan nan -4 nan nan nan nan nan nan nan nan -7 -7 -9 -9 nan nan nan nan nan nan nan nan nan nan nan -8 nan -9 -9 nan nan nan nan nan nan nan nan
nan nan nan nan nan nan nan nan nan nan nan nan nan nan nan nan nan nan nan nan nan nan nan nan nan nan nan nan nan nan nan nan nan nan nan nan nan nan nan -16 -16 -9 -9 -7 -7 -8 -13 nan nan nan -7 nan nan nan nan nan nan nan nan -7 -7 nan nan nan nan nan nan nan nan nan nan nan -8 -8 -8 -9 nan nan nan nan nan nan nan nan nan nan
nan nan nan nan nan nan nan nan nan nan nan nan nan nan nan nan nan nan nan nan nan nan nan nan nan nan nan nan nan nan nan nan nan nan nan nan nan nan nan nan nan nan nan -15 -15 -14 -15 nan nan -14 nan nan nan nan nan nan nan nan nan -7 -7 nan nan nan nan nan nan nan nan nan nan -14 nan nan -9 -8 -8 -8 nan nan nan nan nan nan nan nan
nan nan nan nan nan nan nan nan nan nan nan nan nan nan nan nan nan nan nan nan nan nan nan nan nan nan nan nan nan nan nan nan nan nan nan nan nan nan nan nan nan nan nan nan nan nan nan nan nan nan -12 nan nan nan nan nan nan nan nan nan nan nan nan nan nan nan nan nan nan nan nan nan -20 -20 -15 -9 nan nan nan nan nan nan nan nan nan nan
nan nan nan nan nan nan nan nan nan nan nan nan nan nan nan nan nan nan nan nan nan nan nan nan nan nan nan nan nan nan nan nan nan nan nan nan nan nan -8 -8 -8 -9 -5 nan nan nan nan nan nan nan nan -1 nan nan nan nan nan nan nan nan nan nan nan nan nan nan -11 nan nan nan nan -28 -19 -19 -12 -8 -8 -8 -8 nan nan nan nan nan nan nan
Wind_Speed
2 2 2 2 2 2 2 2 2 2 1 1 1 1 1 1 1 1 1 1 1 0 1 1 2 3 5 6 7 7 6 6 6 6 6 6 6 6 6 6 7 7 7 7 8 8 8 8 9 9 9 9 9 9 9 9 9 9 9 9 9 9 9 8 8 8 8 7 7 7 7 6 6 6 6 6 6 6 6 7 7 7 8 8 8 8
2 2 2 2 2 2 2 1 1 1 1 2 2 2 2 2 1 1 0 0 0 1 1 1 2 2 4 5 6 7 7 6 6 6 6 6 6 6 6 7 7 7 7 7 8 8 8 8 9 9 9 9 9 9 9 9 9 9 9 9 9 9 8 8 8 8 8 7 7 7 6 6 6 6 6 6 6 6 7 7 8 8 8 8 8 8
2 2 2 1 1 1 1 1 1 1 1 2 2 2 2 1 1 1 0 0 1 1 1 1 2 2 4 5 6 6 6 6 6 6 6 6 6 6 6 6 6 7 7 7 8 8 8 9 9 9 9 9 9 9 9 9 9 9 9 9 8 8 8 7 7 7 7 7 6 6 6 6 6 6 6 6 6 7 7 8 8 8 8 9 9 9
2 2 2 1 1 1 1 1 0 1 1 1 1 1 1 1 0 0 1 0 1 1 1 1 2 2 3 4 5 5 6 6 6 6 6 6 6 6 6 6 6 6 7 7 7 8 8 8 9 9 9 9 9 10 10 10 9 9 9 9 8 8 7 7 6 6 6 6 6 6 6 6 6 6 7 7 7 7 8 8 8 9 9 9 9 9
1 1 1 1 1 1 1 0 1 1 1 1 1 1 1 1 0 0 0 1 1 1 1 1 2 2 2 3 3 4 4 4 4 4 4 4 5 5 5 5 6 6 6 7 7 8 8 8 9 9 9 9 9 9 9 9 9 9 9 9 9 8 7 7 6 6 6 6 6 6 6 6 7 7 7 7 8 8 8 9 9 9 9 9 9 9
2 1 1 1 1 1 1 1 1 2 1 2 1 1 1 1 1 0 0 1 1 1 1 1 1 1 2 2 2 2 3 2 2 2 3 3 3 4 4 5 5 6 6 7 7 8 8 9 9 9 9 9 9 9 9 9 9 9 9 9 9 9 8 7 7 6 6 6 6 6 6 7 7 7 8 8 8 8 9 9 9 9 9 9 9 9
2 2 2 1 1 1 1 1 2 2 1 1 1 1 1 1 1 1 1 1 1 1 1 1 1 1 1 2 2 2 2 2 2 2 1 1 2 3 4 5 6 6 7 7 8 8 9 9 9 10 10 10 10 10 9 9 9 9 9 9 9 9 8 8 7 7 7 6 6 6 6 7 7 7 8 8 8 8 9 9 9 9 9 9 9 9
2 2 2 2 2 2 2 1 1 1 1 1 1 1 1 1 1 1 1 1 1 1 1 0 0 0 1 1 1 1 1 0 0 0 0 1 2 3 5 6 7 7 8 8 9 9 10 10 10 10 10 10 10 10 10 9 9 9 8 9 9 8 8 8 8 7 7 7 7 7 7 7 7 8 8 8 8 8 9 9 9 9 9 9 9 8
3 3 2 2 2 2 2 2 1 0 1 1 1 1 0 0 1 1 2 1 1 0 1 1 1 1 1 1 1 2 2 2 2 2 2 2 3 4 5 6 7 8 9 9 10 10 10 10 10 10 10 10 10 10 9 9 8 8 8 8 8 8 8 8 8 7 7 7 7 7 8 8 8 8 8 8 8 8 8 8 8 8 8 8 8 8
2 2 2 2 1 1 1 2 1 1 0 1 1 1 1 1 1 0 1 1 1 1 1 1 1 1 1 1 1 2 2 2 3 3 3 3 3 4 5 6 6 7 9 9 10 10 10 10 10 10 9 9 9 9 8 8 7 7 7 7 7 7 8 8 8 8 8 8 8 8 8 8 9 9 9 9 9 8 8 8 8 8 8 8 8 8
2 2 2 1 1 1 1 1 1 1 0 0 0 0 1 1 2 2 1 0 1 1 1 1 1 1 1 1 1 2 2 2 3 3 3 4 4 5 5 6 6 7 8 9 9 10 10 9 9 8 8 8 8 8 7 7 7 6 6 7 7 7 7 7 8 8 8 8 8 9 9 9 9 9 9 9 8 8 8 8 7 7 7 7 8 8
1 1 1 1 1 1 1 1 1 1 1 1 1 1 1 1 2 2 2 2 1 1 1 1 1 1 1 1 1 2 2 2 2 2 3 3 4 4 4 4 5 5 6 7 8 8 9 8 7 7 7 6 6 6 6 6 6 6 6 6 6 6 7 7 7 7 8 8 8 8 9 9 9 9 9 8 8 8 7 7 7 7 7 7 7 8
1 1 1 1 1 1 1 1 1 1 1 1 0 1 2 1 1 1 2 2 2 1 1 2 2 1 1 0 1 1 2 2 2 2 2 2 3 3 2 2 3 3 4 4 5 5 6 6 6 5 5 5 5 5 5 5 5 5 5 6 6 6 6 6 7 7 7 8 8 8 8 8 8 8 8 8 7 7 7 7 7 7 7 7 7 8
1 1 1 1 1 1 1 1 1 1 1 1 2 2 2 1 1 1 1 2 1 1 1 2 2 2 1 1 1 1 1 2 2 2 2 2 2 2 2 2 2 2 2 3 3 3 5 4 4 4 4 4 4 4 4 5 5 6 6 6 6 6 6 6 7 7 7 7 7 7 7 7 7 7 7 7 7 7 7 7 7 8 8 8 8 8
1 1 1 1 1 1 1 0 0 1 2 2 2 1 1 1 1 1 1 2 2 2 2 2 2 2 0 1 1 1 1 1 2 2 2 3 2 2 2 2 2 2 2 2 3 3 4 3 3 3 3 3 3 4 5 5 6 7 7 8 8 8 7 7 7 7 7 7 7 7 7 7 7 7 7 7 7 7 7 7 7 8 8 8 8 8
1 1 1 1 1 1 1 1 1 1 2 1 1 1 1 1 1 1 2 2 2 2 2 2 2 2 0 2 2 1 2 2 2 2 3 3 3 2 2 2 2 2 2 2 3 3 3 2 2 2 3 3 4 5 6 6 7 8 8 8 8 8 8 8 8 8 8 8 8 8 7 7 7 7 7 7 7 7 7 8 8 8 8 8 8 8
0 0 0 1 1 1 1 1 1 1 1 1 0 0 1 1 1 2 2 2 2 2 1 2 2 1 1 1 2 2 2 1 2 2 3 3 3 2 1 1 1 2 2 2 2 2 2 2 2 2 3 4 6 6 7 8 8 9 9 9 9 9 9 9 9 9 9 9 8 8 8 8 8 8 8 8 8 8 8 8 8 8 8 8 8 9
0 0 0 0 1 1 1 1 1 1 0 0 0 0 0 1 1 1 1 1 1 1 1 1 1 1 2 1 1 2 2 2 2 2 3 3 3 2 1 0 1 2 2 2 2 2 2 2 2 2 4 6 7 8 8 9 9 9 9 9 9 9 9 9 9 9 9 9 9 9 9 8 8 8 8 8 8 8 8 8 8 8 8 8 8 9
0 0 0 0 1 1 1 1 1 0 0 0 1 1 1 1 1 1 1 1 1 1 1 1 1 1 2 2 1 2 2 2 2 2 2 3 3 2 1 1 1 2 2 2 3 2 2 2 3 4 6 7 8 8 8 9 9 9 9 9 9 9 9 9 9 9 9 9 9 9 9 9 9 9 9 9 9 9 9 9 9 9 8 8 8 8
1 0 0 1 1 1 1 1 1 1 2 2 2 2 1 1 1 1 1 1 1 1 1 1 2 2 2 2 2 2 2 2 2 2 2 3 3 3 2 1 2 2 2 2 2 2 2 2 3 4 6 7 7 7 7 8 9 9 9 9 9 9 9 9 9 9 9 9 9 9 9 9 9 9 9 9 9 9 9 8 8 8 8 8 8 9
1 1 1 1 0 0 1 1 2 3 3 3 2 1 1 1 1 2 2 1 1 1 1 1 2 2 2 2 2 2 2 2 2 2 2 2 3 2 1 1 1 2 2 2 2 2 2 2 2 3 5 6 6 6 7 7 8 9 9 9 9 9 9 9 9 9 9 9 9 9 9 9 9 9 9 9 8 8 8 8 8 8 8 8 9 9
0 1 1 1 1 1 2 2 3 4 4 2 1 1 1 1 1 1 2 2 2 2 2 2 2 2 2 2 3 2 2 1 1 1 1 2 3 3 1 1 1 2 2 2 2 2 3 3 3 3 5 6 5 5 6 7 8 8 8 8 8 8 8 8 8 8 8 8 8 8 8 8 8 8 8 8 8 7 7 7 8 8 8 9 9 10
1 1 2 2 2 2 2 2 2 3 3 1 1 1 1 1 1 2 2 2 2 2 2 2 2 2 3 3 3 3 2 1 0 0 1 2 2 2 2 1 2 2 2 2 2 3 3 3 3 4 5 4 4 4 4 6 7 7 7 7 6 6 6 6 6 6 6 6 7 7 7 7 7 7 7 7 7 7 7 8 8 8 9 9 10 11
1 2 2 2 2 2 2 2 2 2 2 1 1 1 1 1 2 2 2 2 2 2 2 2 3 3 3 3 3 3 2 2 1 1 1 2 2 2 2 2 2 2 3 2 2 3 3 3 3 3 3 2 1 2 3 5 6 6 6 6 6 6 6 6 6 6 6 6 6 6 6 6 6 6 6 7 7 7 8 8 9 9 10 10 11 11
2 2 2 2 2 2 2 2 2 2 2 2 1 1 2 2 2 3 2 2 2 2 2 3 3 3 3 3 3 2 2 2 2 1 1 1 2 2 2 2 2 2 3 2 2 3 3 3 3 3 2 1 0 1 3 4 5 5 6 6 6 6 6 6 6 6 6 6 6 6 6 6 7 7 7 7 8 8 9 9 9 10 10 11 11 12
2 3 3 3 3 3 3 3 3 3 2 2 2 2 2 3 3 2 2 2 2 3 3 3 3 3 2 2 2 1 2 2 2 1 1 1 2 2 2 2 2 2 3 3 3 3 3 3 3 2 2 1 1 2 3 4 5 5 6 6 6 6 6 7 7 7 7 7 7 7 7 8 8 8 8 8 9 9 9 10 10 10 11 11 11 12
3 4 4 4 4 3 2 2 1 2 3 3 3 3 3 3 3 3 3 3 2 2 2 2 2 2 2 2 1 1 1 2 2 1 1 1 1 2 2 2 2 2 3 3 3 3 4 4 3 2 2 1 1 2 4 5 5 6 6 7 7 7 7 7 7 8 8 8 8 8 9 9 9 9 9 9 10 10 10 10 11 11 11 10 10 9
3 3 3 3 2 1 0 1 3 4 5 5 5 5 3 2 3 3 3 3 2 2 2 2 2 2 2 2 1 1 0 1 2 2 1 0 1 2 2 2 2 2 3 3 3 4 5 4 3 2 1 1 2 3 4 5 6 6 7 7 7 7 7 8 8 8 8 8 9 9 9 10 10 10 10 10 11 11 11 11 11 11 10 8 6 5
3 3 3 3 3 3 3 4 5 5 6 6 6 5 4 3 3 3 3 2 2 2 2 2 2 2 2 2 2 2 2 0 1 2 1 0 1 2 2 2 2 2 2 3 3 3 3 2 1 1 1 1 2 2 3 4 5 5 6 7 7 7 7 7 7 8 8 9 9 10 10 10 11 11 11 11 11 11 11 11 11 10 7 6 5 4
4 4 4 5 5 4 4 4 4 5 6 7 6 6 4 3 3 3 3 2 2 2 2 2 2 2 2 2 2 2 1 1 2 2 1 0 1 1 2 2 2 2 2 2 2 2 2 0 1 1 0 1 2 2 2 3 3 3 4 5 6 6 7 7 7 7 8 9 10 10 11 11 11 11 12 12 12 12 12 12 10 8 5 4 4 4
3 3 3 3 3 3 3 3 3 4 5 6 6 5 4 3 3 3 2 2 2 2 2 2 2 2 2 2 1 1 1 1 2 2 1 1 1 1 2 2 2 2 2 2 2 2 2 1 0 1 1 2 2 2 3 3 2 2 2 3 3 4 6 6 7 7 8 9 10 10 11 11 11 11 12 12 12 12 12 12 10 7 4 3 3 4
2 1 1 1 2 2 2 2 2 2 3 3 4 4 4 3 3 3 2 2 2 2 2 2 2 2 2 2 2 2 1 1 2 2 1 1 1 1 1 1 2 2 1 1 1 1 2 2 1 2 2 3 3 3 3 3 3 2 2 2 2 3 5 6 7 7 7 8 9 9 10 10 10 11 11 11 11 11 11 11 10 8 4 3 3 4
1 1 2 2 2 2 2 2 2 2 2 2 2 2 3 3 3 3 2 2 2 2 2 2 2 2 2 2 2 2 1 0 2 3 2 1 1 1 1 1 2 2 2 2 1 2 2 2 2 2 3 3 3 3 3 3 3 2 2 2 2 3 4 5 5 5 6 6 7 7 8 9 9 10 10 10 10 11 11 11 10 9 6 4 3 4
2 2 3 3 3 3 2 2 2 2 2 2 2 2 2 2 2 3 2 2 2 2 2 2 2 2 2 2 2 2 2 1 1 2 1 0 1 1 1 1 2 2 2 2 2 2 2 3 3 3 3 3 2 3 3 3 3 2 1 2 2 2 3 3 4 4 4 4 4 4 5 6 7 8 8 9 9 9 10 10 10 10 9 6 4 4
2 3 3 3 3 3 2 2 2 2 2 2 2 2 2 2 2 2 2 2 2 2 2 2 2 2 2 2 2 2 2 1 1 2 2 1 1 1 1 2 2 2 2 2 2 2 2 3 4 4 3 3 3 2 2 2 2 2 2 2 2 2 3 3 3 3 4 3 3 3 3 3 4 5 6 7 8 8 9 10 10 10 11 10 8 6
3 3 3 3 3 3 2 2 2 2 2 2 2 2 2 2 2 2 2 2 2 2 2 2 2 2 2 2 2 2 2 2 2 2 2 2 1 1 1 2 2 2 2 2 2 2 2 3 4 4 4 3 3 2 2 2 2 3 3 3 3 3 3 3 3 3 3 3 3 3 3 3 3 3 4 6 8 8 9 9 10 11 11 12 11 10
3 3 3 3 3 2 2 2 2 2 2 2 2 2 2 2 2 2 2 2 2 2 2 3 3 3 3 3 3 3 3 3 3 3 2 1 1 1 2 2 2 2 2 2 3 3 3 3 4 4 4 3 3 2 2 2 3 3 3 3 3 3 3 4 4 4 3 3 3 3 3 3 3 3 4 7 8 8 9 9 10 10 11 12 12 12
3 3 3 3 2 2 2 2 2 2 2 2 2 2 2 2 2 2 2 2 2 2 2 2 3 4 5 5 5 4 4 4 4 3 3 2 1 1 2 2 3 3 3 3 3 3 3 3 3 4 3 3 3 4 4 3 3 3 3 3 3 3 3 4 4 3 3 3 4 4 4 4 3 3 4 4 5 4 5 5 6 8 9 10 11 12
3 3 3 3 2 2 2 2 2 2 2 2 2 2 2 2 2 2 2 2 2 2 3 3 3 3 4 5 5 6 6 5 4 3 2 2 2 2 3 3 3 3 3 3 3 3 3 3 3 3 3 4 4 4 4 3 3 3 4 3 3 3 3 3 3 3 3 3 4 4 4 4 3 3 3 3 3 3 3 3 4 5 5 5 6 8
3 3 3 3 2 2 2 2 2 2 2 2 1 2 1 1 2 2 2 2 2 3 3 3 3 3 3 4 5 6 6 5 5 4 3 3 3 3 3 3 3 3 3 3 3 3 4 4 4 4 4 4 4 4 4 4 4 4 5 4 3 3 3 3 3 3 3 3 4 4 4 3 3 3 3 3 3 3 3 3 3 4 4 3 3 4
3 3 3 2 2 2 2 2 2 2 2 1 1 1 2 1 1 1 2 2 2 3 3 3 3 3 3 4 4 5 6 5 5 5 4 4 4 4 3 4 4 3 3 3 3 4 4 4 4 5 4 4 5 5 5 5 6 6 6 5 4 4 4 4 4 3 3 4 3 3 4 4 4 4 3 4 3 3 3 3 3 3 3 3 3 3
4 3 2 2 1 1 1 1 2 2 2 2 2 2 2 2 2 2 2 2 2 2 2 2 2 3 3 4 4 4 5 5 5 5 5 5 5 4 4 4 4 4 3 4 4 4 4 4 5 5 4 4 4 5 5 5 6 6 6 5 5 5 5 5 4 3 3 3 4 4 5 4 4 4 4 4 4 3 4 4 4 5 4 3 3 3
3 2 2 1 1 1 2 2 2 2 2 2 2 2 2 2 2 2 2 2 2 2 2 2 2 2 2 3 3 3 3 4 4 5 5 5 5 5 4 4 4 4 4 4 4 4 4 5 5 5 4 4 4 5 6 6 5 5 5 6 6 5 4 3 2 2 3 3 4 4 4 4 4 4 4 4 4 4 4 5 6 6 6 4 4 4
2 2 2 2 2 2 2 2 2 2 2 3 2 2 2 2 2 2 2 2 2 2 2 2 2 2 2 3 3 2 2 3 4 4 5 6 6 6 5 5 5 5 5 4 3 3 3 4 4 4 4 4 5 5 6 5 5 5 5 6 6 5 4 3 3 3 4 4 3 3 3 4 4 4 4 4 4 4 3 3 4 4 5 5 4 4
2 2 2 2 2 2 2 2 3 3 3 3 3 2 2 2 2 3 2 2 2 2 2 2 2 2 2 3 3 2 2 2 3 3 3 5 7 8 6 5 5 5 5 5 4 4 4 4 4 4 4 4 5 5 6 6 6 6 6 6 6 6 5 5 4 4 4 4 4 4 3 3 4 4 4 5 4 4 4 4 4 4 4 4 4 5
2 2 2 2 2 3 3 3 3 3 3 3 3 2 2 2 2 2 3 2 2 2 2 2 2 2 3 2 2 2 2 2 2 2 3 3 5 6 6 6 6 5 5 5 5 5 5 4 4 4 4 4 5 5 6 6 6 6 6 6 6 5 5 5 4 4 4 4 4 4 4 3 4 4 4 5 5 5 4 4 5 5 4 4 4 5
2 2 2 2 3 3 3 3 3 3 3 3 3 2 2 2 2 2 2 2 2 2 2 2 3 3 3 3 2 2 2 2 2 2 2 2 3 3 4 5 5 6 5 5 5 5 5 5 5 5 5 5 5 6 6 6 6 6 6 5 5 5 5 4 4 4 4 4 4 4 3 3 4 4 5 5 5 5 4 5 5 5 5 4 5 5
2 3 3 3 3 3 3 3 3 3 3 3 3 2 2 2 3 3 2 2 2 2 3 3 3 4 4 4 3 3 3 2 2 2 2 2 2 3 3 3 4 4 5 5 5 6 6 6 6 6 6 6 6 6 6 6 6 6 5 5 5 5 5 4 4 4 4 4 4 3 3 3 4 5 5 5 5 5 5 5 5 5 5 5 5 5
3 3 3 3 3 3 3 3 3 3 3 3 2 2 2 3 4 4 3 2 2 2 3 4 4 4 4 4 3 3 3 3 2 2 2 2 2 2 2 2 2 2 3 4 4 5 5 6 7 8 8 7 7 7 7 6 6 5 5 5 5 4 5 4 4 4 4 4 4 4 4 4 4 5 5 6 6 6 6 6 5 5 5 4 5 5
3 3 3 3 3 3 3 3 3 3 3 3 3 2 2 3 3 3 3 2 2 3 3 4 4 4 4 4 3 3 3 2 2 2 3 2 2 2 2 2 2 2 2 3 3 3 4 4 6 8 10 11 10 8 7 6 5 5 5 5 4 4 5 5 4 4 4 4 4 4 4 4 4 4 4 5 6 7 7 6 6 5 5 4 5 5
3 3 3 3 3 3 3 3 3 3 3 3 3 3 2 2 2 2 2 3 3 3 4 4 4 4 4 4 3 3 3 3 3 3 3 3 2 2 2 2 2 2 2 2 2 3 2 3 3 4 7 11 13 12 7 6 5 4 5 4 4 4 4 4 4 4 5 5 4 4 4 4 4 4 4 5 5 6 7 6 6 5 4 4 4 5
Wind_Direction
101 101 99 97 97 92 77 47 24 6 359 330 312 310 324 312 303 301 307 303 314 10 89 96 99 92 82 66 58 55 54 56 59 62 64 66 66 65 62 58 54 50 46 41 37 33 28 24 21 17 14 11 8 6 4 2 1 1 0 359 357 356 355 354 353 353 355 2 8 13 15 15 16 17 15 7 359 355 353 353 353 352 350 348 346 345
112 113 106 100 98 98 96 70 34 353 324 312 314 324 331 323 318 315 321 329 16 45 74 86 91 88 85 71 60 52 50 53 55 58 60 61 61 59 56 51 47 42 37 33 29 24 21 17 14 10 7 4 2 360 358 356 355 355 356 356 357 357 358 358 359 359 0 4 7 8 6 4 2 1 358 352 348 345 345 347 346 345 345 343 341 339
136 131 119 104 95 91 93 82 43 330 298 301 312 323 323 319 324 337 338 45 79 78 75 82 86 85 84 75 62 51 49 50 52 54 55 55 53 50 47 42 37 32 28 24 20 15 12 9 6 3 0 357 355 352 350 348 347 347 347 348 350 352 355 357 359 0 2 3 3 2 358 355 351 348 344 341 339 339 339 340 340 339 338 336 334 332
143 134 124 120 115 105 83 54 356 297 276 278 279 279 281 299 344 14 339 17 70 78 73 71 73 77 82 78 67 57 50 49 49 50 50 48 45 41 37 31 26 21 17 13 8 5 2 359 357 354 352 350 347 345 342 340 338 337 336 337 338 341 344 347 350 352 355 355 355 354 352 348 344 341 338 337 336 335 334 333 332 331 330 329 327 324
132 121 119 130 130 120 90 22 282 257 238 231 222 211 196 167 112 70 4 25 40 53 53 52 54 63 78 82 77 69 61 57 54 52 48 44 39 32 25 19 13 7 3 359 355 353 350 348 346 344 343 341 338 336 334 332 330 329 327 326 327 328 330 332 334 335 337 340 343 343 343 341 339 337 336 335 333 331 330 328 326 325 323 322 320 318
129 124 122 132 125 119 125 207 233 235 222 210 197 179 153 133 124 107 62 42 36 38 39 34 38 53 73 87 93 93 90 85 79 73 62 50 36 25 13 4 357 351 347 343 341 338 336 335 334 333 332 331 329 328 326 325 323 321 320 319 319 319 320 321 321 322 322 325 328 330 332 332 332 332 332 330 329 327 325 323 320 319 317 316 315 313
135 136 143 143 139 141 167 199 218 228 223 207 184 164 149 145 134 105 68 45 31 25 22 26 30 46 69 91 107 121 128 131 134 130 110 81 38 11 358 348 341 336 332 329 328 326 325 324 324 323 323 322 321 320 319 318 317 317 315 314 313 314 314 314 314 314 313 314 315 317 319 320 322 322 323 322 322 321 320 318 316 314 312 311 310 308
143 152 160 162 160 162 170 179 196 229 270 256 213 179 167 164 153 136 119 88 46 10 345 338 338 55 64 69 76 80 63 94 120 137 91 22 358 349 343 335 329 324 321 319 318 317 316 316 316 317 317 317 316 316 315 315 314 313 312 311 310 310 311 311 310 310 309 308 308 308 308 310 311 312 313 313 314 314 314 313 312 310 308 307 305 303
148 155 163 165 164 161 156 147 142 115 318 319 325 328 298 190 169 160 159 142 116 49 351 336 335 2 39 33 25 16 12 2 352 345 343 343 341 338 331 323 319 316 313 311 311 310 310 311 312 314 314 315 315 315 314 314 313 313 312 311 310 310 309 309 309 308 307 305 304 303 303 303 304 305 306 306 307 307 308 308 307 305 304 302 301 299
143 143 142 139 132 123 126 126 123 116 331 333 349 356 350 339 326 255 189 151 132 111 43 1 347 346 359 1 7 7 4 350 338 329 324 318 313 310 308 306 306 306 306 306 307 307 307 309 311 313 315 316 316 316 316 316 316 316 315 314 312 310 309 308 307 305 304 301 300 299 299 299 300 300 300 301 302 302 303 302 301 300 299 298 298 298
128 123 119 109 96 77 88 103 111 121 213 232 210 96 36 9 349 329 308 36 101 93 63 29 355 334 325 327 337 349 352 339 327 319 315 306 299 295 293 294 296 301 304 307 307 308 308 310 313 315 316 317 317 318 319 320 320 318 317 315 312 309 307 305 303 301 299 297 296 295 294 295 295 295 295 296 297 298 298 297 295 294 295 296 297 298
117 114 116 122 125 125 118 112 126 160 209 215 199 162 105 53 12 342 325 331 348 8 7 351 329 302 291 304 327 341 345 332 325 321 318 310 304 300 298 301 306 310 313 314 313 312 312 315 317 318 317 316 317 318 321 321 321 319 315 312 308 305 302 299 297 295 293 292 291 290 289 289 290 290 291 292 293 293 293 292 291 292 294 297 299 300
112 116 128 139 144 146 149 155 172 186 201 221 212 74 75 58 24 343 317 312 325 344 349 327 307 289 261 351 10 356 344 330 324 319 316 311 308 308 310 317 323 326 325 320 316 314 316 319 319 317 313 313 315 318 322 323 322 319 315 311 307 303 300 297 294 291 290 287 286 286 285 285 286 287 288 289 290 290 291 290 291 292 294 297 298 299
127 140 155 155 153 154 163 182 185 166 104 44 32 32 38 31 354 313 295 293 310 336 337 310 296 287 244 93 68 29 357 333 323 318 314 311 311 313 317 322 327 329 326 316 310 311 319 322 319 314 310 309 314 321 331 329 326 322 319 315 311 308 303 300 297 294 291 289 287 286 284 284 285 285 286 286 286 287 288 289 290 291 293 295 296 296
149 165 172 168 157 146 136 142 70 67 67 53 42 25 358 329 312 308 305 313 328 338 329 310 298 290 253 92 69 28 20 347 330 323 319 313 311 313 322 326 327 325 319 310 305 307 315 316 312 308 311 316 328 337 337 330 323 319 317 314 312 309 306 304 301 299 297 294 292 290 287 286 285 285 284 284 284 285 286 286 287 288 289 291 292 292
155 179 179 167 144 121 93 54 46 57 70 67 52 9 329 324 337 345 341 335 336 335 325 317 308 303 304 97 82 46 23 1 342 327 320 311 307 310 333 334 327 319 312 305 302 302 305 304 305 306 309 316 321 323 321 315 312 310 309 307 305 304 302 301 299 298 297 295 293 291 289 286 284 283 282 282 282 283 283 283 283 283 284 285 286 287
104 199 177 150 125 107 91 67 54 58 74 84 77 20 341 348 355 357 345 334 327 321 316 315 315 313 306 112 109 90 44 10 345 327 317 307 302 307 350 344 322 310 307 300 297 295 297 299 305 308 308 309 310 310 309 305 304 302 301 299 298 297 295 295 294 293 292 291 290 289 287 285 283 282 280 280 279 280 280 280 280 280 280 280 281 282
70 6 338 98 101 100 100 98 92 90 113 144 127 83 28 13 6 344 317 311 308 309 315 313 315 311 301 310 81 95 72 25 349 327 314 305 301 303 330 319 300 297 298 296 294 293 296 303 305 304 299 301 302 302 303 302 301 300 297 295 293 291 290 289 288 287 287 286 285 285 284 283 282 281 279 278 277 277 277 277 277 277 277 277 278 280
119 66 4 37 76 92 109 122 132 131 132 54 34 20 1 2 351 313 289 292 300 309 321 316 308 299 293 297 335 35 55 26 352 327 314 306 303 301 305 298 295 296 296 296 296 298 300 301 298 296 294 295 297 300 302 303 302 301 298 295 292 289 286 285 283 283 282 282 281 280 280 280 279 278 277 276 275 275 275 275 275 275 277 278 280 281
120 105 51 37 67 112 137 122 98 66 46 34 24 10 352 346 337 324 307 308 312 317 315 299 289 284 282 286 307 346 22 14 352 326 311 304 300 297 300 308 308 304 299 297 297 298 300 296 293 292 293 295 298 302 306 306 305 302 299 295 291 288 285 283 281 280 279 278 278 277 276 275 275 274 274 274 274 274 275 275 276 277 278 280 281 283
107 109 78 41 23 67 104 83 69 59 52 39 21 357 341 341 333 325 319 320 317 307 291 274 270 272 280 289 301 324 356 357 344 325 312 303 296 292 295 314 312 304 297 295 295 298 300 297 293 291 292 297 302 307 311 309 307 303 299 295 291 287 284 281 279 278 277 276 275 274 272 272 271 270 270 272 273 275 276 276 277 278 279 280 281 281
45 82 77 50 30 29 48 59 63 65 67 57 25 339 336 337 324 313 311 312 307 296 284 276 279 286 295 295 297 303 318 324 325 317 309 298 293 291 301 326 318 300 293 294 298 304 307 304 297 292 291 297 304 311 313 309 306 303 300 296 292 289 286 280 278 278 276 275 274 272 270 270 270 270 271 273 274 276 277 278 278 278 279 279 279 279
26 66 77 60 44 35 38 50 61 67 70 60 13 340 344 328 308 297 296 297 293 291 289 290 291 290 287 281 276 272 257 221 197 252 283 285 288 295 317 327 314 297 290 296 304 310 311 304 297 292 291 301 310 315 314 308 306 305 306 306 306 304 301 298 295 292 289 287 284 282 280 279 277 276 275 275 275 276 276 276 276 277 277 277 277 277
40 60 71 66 56 44 31 43 52 53 47 29 4 342 323 290 277 274 277 280 282 283 285 286 283 277 268 259 254 244 204 163 155 179 252 276 287 297 314 317 308 297 292 298 306 309 306 299 293 288 288 306 321 313 305 304 306 309 315 319 321 320 320 317 314 311 308 303 300 298 294 291 288 283 280 277 275 274 274 274 274 274 275 275 276 276
51 62 75 82 80 70 46 40 39 36 27 10 349 322 298 279 269 262 257 259 262 263 266 270 271 269 264 256 248 226 154 143 153 179 233 273 288 294 301 304 301 297 297 301 305 305 300 295 291 288 287 286 252 268 285 294 301 307 314 318 319 319 319 315 313 309 305 301 299 296 293 290 286 282 279 277 275 274 274 274 274 274 275 275 275 276
65 71 79 86 86 78 60 46 35 22 2 344 330 320 313 304 293 280 264 252 247 247 250 257 263 267 266 262 250 210 135 141 157 183 217 264 286 290 292 296 298 299 300 303 304 301 295 291 290 290 295 300 266 261 269 279 287 294 300 303 304 304 302 300 296 293 291 288 286 285 284 282 280 278 276 275 274 274 274 274 275 275 276 277 276 276
87 86 86 87 86 81 66 41 357 324 310 303 300 300 306 304 296 283 269 258 250 246 249 258 266 272 275 272 264 225 145 151 159 175 198 259 283 287 290 297 303 305 305 305 302 296 289 284 282 283 297 308 294 276 270 274 278 282 286 289 290 289 288 287 284 282 281 280 278 278 277 276 275 274 273 273 273 273 274 275 276 277 278 279 278 276
113 110 108 111 114 122 193 268 275 278 281 282 283 284 283 278 270 266 262 262 261 260 259 264 271 278 283 285 294 296 255 156 143 136 151 238 275 281 287 301 309 314 313 309 301 290 279 269 262 263 282 293 290 281 276 277 277 279 283 285 285 284 283 281 279 278 278 277 276 275 274 273 273 272 272 272 272 273 273 275 276 278 280 280 278 274
150 155 162 177 192 211 231 249 261 269 273 274 274 272 264 255 251 254 261 270 275 273 267 265 267 272 280 289 297 298 278 133 109 107 113 245 270 277 288 306 321 328 326 315 303 289 268 243 217 198 255 279 280 279 280 283 284 286 291 291 290 288 284 280 278 278 278 277 276 275 274 272 272 271 271 271 271 272 272 274 275 277 279 278 275 270
184 188 197 206 214 223 234 246 259 268 272 273 270 264 251 244 244 250 261 273 276 271 264 264 264 267 274 285 287 279 258 114 106 111 125 241 274 284 303 321 332 338 339 325 316 306 289 223 145 137 202 288 290 289 288 293 295 298 302 300 298 295 290 285 282 280 279 277 276 274 273 272 271 270 270 270 270 271 271 272 273 273 274 272 270 268
206 207 215 222 230 237 246 254 263 269 273 272 267 258 243 236 238 245 257 264 263 259 256 259 261 265 268 273 273 269 261 110 119 134 156 225 270 289 317 321 324 329 339 334 326 318 313 322 79 98 20 326 317 311 306 302 300 300 302 304 303 300 298 294 289 285 282 279 277 274 272 271 270 269 269 269 269 269 269 269 269 269 268 267 267 268
239 243 258 268 269 266 262 260 258 261 265 264 257 247 233 229 230 235 244 247 248 249 251 255 259 261 261 255 257 266 294 106 125 139 160 222 267 285 308 306 307 310 323 321 311 302 301 306 323 344 346 331 320 312 305 300 295 293 295 299 300 301 302 301 296 292 288 284 281 279 276 274 272 270 269 269 268 268 267 267 266 265 262 262 265 267
279 279 276 272 267 259 251 244 242 242 247 248 241 233 224 222 224 227 232 236 239 242 248 253 258 261 261 256 255 262 285 284 126 132 146 216 270 283 295 298 298 301 307 299 283 270 271 286 301 313 316 311 307 301 297 294 291 289 293 297 298 299 301 301 299 297 295 292 291 289 285 280 277 274 271 269 268 267 265 264 262 260 256 257 260 265
272 269 267 265 260 255 247 241 238 236 237 238 231 222 211 211 215 219 225 232 238 246 252 257 260 263 266 263 260 260 266 268 107 104 107 326 294 294 301 297 296 297 301 295 287 279 274 281 290 298 302 302 301 298 293 290 291 295 301 298 293 291 293 295 294 294 294 295 295 293 290 286 284 281 276 273 270 267 265 263 261 258 256 255 255 260
266 266 266 263 259 255 251 247 242 237 233 232 224 215 204 203 204 207 214 222 233 245 258 265 270 272 271 269 266 263 263 283 36 52 42 16 339 310 302 293 291 292 297 294 294 291 286 287 292 296 301 304 302 296 287 291 304 318 322 309 299 292 290 291 292 293 292 291 287 284 283 284 285 285 282 278 274 271 268 265 262 260 258 256 256 256
263 265 265 262 259 255 252 252 249 243 233 225 214 204 200 201 202 201 201 210 220 232 243 255 264 269 269 267 265 266 271 296 341 7 14 10 353 316 292 284 287 291 292 290 287 287 287 291 294 296 298 298 297 294 292 310 326 331 325 316 309 305 302 300 297 294 290 286 283 280 279 280 281 283 283 281 279 277 274 270 267 264 261 259 257 256
263 264 264 261 258 253 250 252 251 246 235 219 205 196 194 201 206 206 202 202 210 223 234 244 249 250 248 252 255 260 270 287 306 320 333 347 337 293 275 277 279 281 281 281 284 287 290 292 294 295 292 289 290 297 308 323 327 323 315 311 309 307 303 299 294 289 284 281 279 279 278 278 278 279 280 282 282 281 278 274 271 267 264 262 259 257
267 266 264 261 257 252 246 244 244 242 236 220 203 193 191 198 209 217 219 213 214 220 232 237 244 247 245 248 249 254 263 271 281 291 306 308 285 261 258 266 269 269 269 272 277 283 286 289 292 293 291 291 294 300 308 314 313 309 303 303 303 300 296 292 289 285 284 286 287 287 285 281 278 276 276 279 280 280 278 276 274 271 267 265 262 260
263 264 263 263 261 256 247 242 240 238 235 224 208 197 193 203 216 228 240 237 233 232 235 241 247 250 249 249 251 253 255 257 259 263 269 259 248 246 249 256 261 264 264 265 267 270 273 276 281 286 292 296 298 300 302 302 303 302 302 301 298 293 289 291 294 297 300 300 300 297 292 285 279 274 274 275 276 276 275 274 272 270 269 268 267 265
259 260 261 262 262 260 254 249 247 243 239 227 211 205 204 214 226 237 247 249 247 245 243 243 246 251 252 251 251 250 248 244 240 237 231 221 220 227 238 246 253 258 260 259 258 258 260 265 270 276 282 288 293 296 298 297 298 299 302 302 299 296 296 299 300 300 298 293 288 285 282 279 277 276 276 274 272 270 268 268 269 270 268 267 270 273
261 260 260 261 261 259 256 255 254 253 248 236 221 211 210 217 227 238 246 246 245 242 241 239 242 245 247 243 240 239 237 231 226 222 213 203 203 211 228 239 247 252 255 255 254 253 255 261 267 272 275 280 286 289 290 291 294 296 298 298 297 297 299 296 292 287 283 279 275 275 281 286 288 287 283 279 273 266 263 263 266 269 270 264 261 262
264 265 265 268 268 263 258 257 256 254 250 241 230 221 214 211 216 228 239 241 238 236 231 230 235 243 249 245 238 231 224 218 213 209 202 194 194 200 216 232 241 247 250 252 253 253 253 258 263 268 273 279 283 286 287 288 290 292 294 293 294 295 294 290 286 283 285 291 297 302 304 303 301 298 292 288 284 279 275 273 273 273 273 266 260 255
267 269 277 287 294 294 287 274 262 252 243 236 230 224 216 208 212 223 236 243 243 240 235 232 236 246 257 258 251 237 219 205 201 199 196 189 188 195 209 224 233 240 245 249 253 255 255 257 260 264 268 273 276 280 283 286 288 288 287 288 291 294 294 291 291 294 298 300 302 302 302 297 293 291 290 289 288 287 286 283 281 278 275 271 264 258
282 290 302 305 304 297 288 272 259 249 241 236 231 225 215 209 214 224 234 243 247 247 244 241 244 250 258 262 261 253 229 202 195 197 199 195 193 195 204 216 228 236 241 246 251 256 260 259 259 261 263 266 270 273 277 281 284 285 284 284 283 281 280 285 290 293 291 288 285 280 277 280 284 285 286 284 282 280 278 275 273 271 270 267 264 260
294 300 301 293 285 275 263 256 250 246 241 237 233 227 218 211 214 221 230 241 248 251 249 247 248 251 253 254 254 251 239 211 197 195 203 205 202 201 202 211 222 231 237 240 245 250 256 260 263 264 265 265 267 269 272 277 280 281 281 280 279 276 274 279 284 287 286 285 282 279 276 279 284 286 286 284 282 279 275 273 270 270 269 267 265 263
271 276 274 269 263 258 255 251 249 245 240 236 233 228 221 213 214 221 230 236 244 249 250 246 247 251 254 254 252 247 240 226 212 204 206 206 203 202 204 211 218 225 231 235 238 241 245 253 259 265 270 269 267 265 266 270 273 276 277 278 278 278 278 279 280 280 281 282 281 280 280 283 286 286 284 284 283 281 278 275 274 273 273 271 270 267
245 250 252 252 250 248 247 246 244 241 237 231 227 223 218 213 214 220 227 230 236 241 242 240 240 244 250 252 251 248 240 233 228 224 220 214 207 204 206 212 217 222 228 233 237 239 242 245 249 254 262 266 267 266 264 264 266 269 272 275 277 278 278 277 277 276 276 276 277 278 280 282 282 281 280 281 281 280 277 275 274 274 272 272 271 270
243 246 248 248 247 245 243 240 237 236 233 229 223 218 214 213 215 220 225 226 229 233 235 233 234 239 245 248 248 245 240 234 232 234 237 232 225 217 215 218 222 226 231 237 242 244 245 242 241 242 247 253 259 263 265 263 263 264 268 271 274 276 276 276 275 275 274 270 268 266 267 270 273 274 278 279 280 279 277 275 273 272 270 270 270 270
239 242 244 245 245 244 242 238 234 231 228 225 221 218 215 218 221 222 223 224 227 230 231 231 233 236 240 242 242 242 239 235 232 234 239 239 236 231 231 233 236 240 244 247 248 248 248 244 239 235 234 238 245 253 259 260 260 261 263 265 267 270 272 273 272 271 270 266 260 255 251 256 260 264 271 274 276 276 277 276 274 272 269 267 266 266
232 235 237 240 242 243 243 240 235 230 227 223 221 220 218 217 214 215 216 222 228 231 232 233 234 237 241 241 242 240 236 232 229 231 234 234 231 230 231 236 244 252 258 259 258 257 255 250 240 232 227 226 229 235 246 251 255 257 258 258 258 261 265 267 267 267 265 265 261 255 248 251 252 254 258 265 270 274 277 277 276 274 271 268 266 265
229 231 232 235 238 242 244 243 239 233 227 224 222 222 222 218 214 210 212 219 226 231 234 234 235 238 241 244 244 242 237 235 233 231 233 234 232 228 228 231 238 247 258 265 268 269 269 268 260 245 231 224 221 220 227 234 243 251 255 254 253 253 257 262 264 264 263 264 263 260 256 254 254 254 254 261 269 274 277 278 278 277 276 276 275 275